| time (UTC) | temp F | wind direction | speed MPH | gust MPH | rain 1hr in | rain 24hr in | rain mn in | humidity % | barometer mb |
| 20260505204544 | 74 | 126 | 5.0 | 14.0 | 0.00 | 0.00 | 0.00 | 53 | 1008.5 |
| 20260505204014 | 74 | 175 | 5.0 | 18.0 | 0.00 | 0.00 | 0.00 | 54 | 1008.6 |
| 20260505203516 | 74 | 236 | 5.0 | 18.0 | 0.00 | 0.00 | 0.00 | 54 | 1008.7 |
| 20260505203034 | 74 | 200 | 6.0 | 17.0 | 0.00 | 0.00 | 0.00 | 54 | 1008.9 |
| 20260505202516 | 73 | 232 | 7.0 | 19.0 | 0.00 | 0.00 | 0.00 | 54 | 1008.8 |
| 20260505202014 | 73 | 247 | 7.0 | 19.0 | 0.00 | 0.00 | 0.00 | 54 | 1008.9 |
| 20260505201531 | 73 | 144 | 8.0 | 16.0 | 0.00 | 0.00 | 0.00 | 53 | 1009.0 |
| 20260505201016 | 73 | 146 | 7.0 | 17.0 | 0.00 | 0.00 | 0.00 | 54 | 1008.9 |
| 20260505200516 | 73 | 177 | 7.0 | 21.0 | 0.00 | 0.00 | 0.00 | 54 | 1008.9 |
| 20260505200030 | 74 | 158 | 9.0 | 21.0 | 0.00 | 0.00 | 0.00 | 54 | 1008.9 |
| 20260505195514 | 74 | 238 | 9.0 | 19.0 | 0.00 | 0.00 | 0.00 | 53 | 1009.0 |
| 20260505195014 | 74 | 168 | 8.0 | 19.0 | 0.00 | 0.00 | 0.00 | 54 | 1009.0 |
| 20260505194541 | 74 | 247 | 8.0 | 19.0 | 0.00 | 0.00 | 0.00 | 53 | 1009.2 |
| 20260505194014 | 74 | 192 | 10.0 | 18.0 | 0.00 | 0.00 | 0.00 | 53 | 1009.3 |
| 20260505193514 | 74 | 194 | 8.0 | 16.0 | 0.00 | 0.00 | 0.00 | 54 | 1009.4 |
| 20260505193034 | 74 | 202 | 6.0 | 18.0 | 0.00 | 0.00 | 0.00 | 54 | 1009.3 |
| 20260505192516 | 74 | 234 | 7.0 | 20.0 | 0.00 | 0.00 | 0.00 | 54 | 1009.4 |
| 20260505192016 | 74 | 171 | 5.0 | 20.0 | 0.00 | 0.00 | 0.00 | 56 | 1009.4 |
| 20260505191530 | 74 | 194 | 7.0 | 20.0 | 0.00 | 0.00 | 0.00 | 55 | 1009.5 |
| 20260505191017 | 74 | 211 | 7.0 | 20.0 | 0.00 | 0.00 | 0.00 | 55 | 1009.5 |
| 20260505190518 | 74 | 196 | 8.0 | 20.0 | 0.00 | 0.00 | 0.00 | 53 | 1009.7 |
| 20260505190037 | 74 | 165 | 6.0 | 17.0 | 0.00 | 0.00 | 0.00 | 54 | 1009.8 |
| 20260505185516 | 74 | 196 | 8.0 | 18.0 | 0.00 | 0.00 | 0.00 | 53 | 1009.8 |
| 20260505185014 | 75 | 208 | 9.0 | 18.0 | 0.00 | 0.00 | 0.00 | 52 | 1009.9 |
| 20260505184533 | 75 | 182 | 7.0 | 16.0 | 0.00 | 0.00 | 0.00 | 52 | 1009.9 |
| 20260505184017 | 75 | 221 | 9.0 | 16.0 | 0.00 | 0.00 | 0.00 | 52 | 1010.1 |
| 20260505183516 | 75 | 149 | 6.0 | 20.0 | 0.00 | 0.00 | 0.00 | 51 | 1010.1 |
| 20260505183034 | 76 | 219 | 7.0 | 20.0 | 0.00 | 0.00 | 0.00 | 50 | 1010.1 |
| 20260505182515 | 76 | 153 | 10.0 | 19.0 | 0.00 | 0.00 | 0.00 | 49 | 1010.1 |
| 20260505182014 | 76 | 115 | 6.0 | 17.0 | 0.00 | 0.00 | 0.00 | 50 | 1010.1 |
| 20260505181536 | 76 | 211 | 6.0 | 17.0 | 0.00 | 0.00 | 0.00 | 49 | 1010.0 |
| 20260505181015 | 76 | 212 | 8.0 | 21.0 | 0.00 | 0.00 | 0.00 | 50 | 1010.1 |
| 20260505180515 | 77 | 212 | 7.0 | 21.0 | 0.00 | 0.00 | 0.00 | 49 | 1010.1 |
| 20260505180043 | 77 | 208 | 7.0 | 21.0 | 0.00 | 0.00 | 0.00 | 48 | 1010.2 |
| 20260505175515 | 77 | 216 | 9.0 | 19.0 | 0.00 | 0.00 | 0.00 | 46 | 1010.1 |
| 20260505175016 | 77 | 190 | 6.0 | 17.0 | 0.00 | 0.00 | 0.00 | 47 | 1010.2 |
| 20260505174536 | 77 | 205 | 6.0 | 20.0 | 0.00 | 0.00 | 0.00 | 49 | 1010.3 |
| 20260505174015 | 76 | 209 | 7.0 | 20.0 | 0.00 | 0.00 | 0.00 | 47 | 1010.3 |
| 20260505173514 | 76 | 162 | 8.0 | 16.0 | 0.00 | 0.00 | 0.00 | 47 | 1010.3 |
| 20260505173031 | 76 | 213 | 7.0 | 14.0 | 0.00 | 0.00 | 0.00 | 49 | 1010.4 |
| 20260505172514 | 76 | 198 | 6.0 | 15.0 | 0.00 | 0.00 | 0.00 | 48 | 1010.4 |
| 20260505172014 | 76 | 187 | 7.0 | 15.0 | 0.00 | 0.00 | 0.00 | 49 | 1010.4 |
| 20260505171529 | 75 | 217 | 8.0 | 13.0 | 0.00 | 0.00 | 0.00 | 50 | 1010.5 |
| 20260505171016 | 75 | 126 | 6.0 | 15.0 | 0.00 | 0.00 | 0.00 | 50 | 1010.5 |
| 20260505170518 | 75 | 210 | 6.0 | 21.0 | 0.00 | 0.00 | 0.00 | 51 | 1010.6 |
| 20260505170032 | 75 | 219 | 5.0 | 21.0 | 0.00 | 0.00 | 0.00 | 54 | 1010.8 |
| 20260505165515 | 75 | 0 | 7.0 | 21.0 | 0.00 | 0.00 | 0.00 | 51 | 1010.9 |
| 20260505165015 | 76 | 208 | 6.0 | 13.0 | 0.00 | 0.00 | 0.00 | 51 | 1011.0 |
| 20260505164534 | 76 | 190 | 5.0 | 15.0 | 0.00 | 0.00 | 0.00 | 51 | 1011.0 |
| 20260505164016 | 76 | 198 | 6.0 | 17.0 | 0.00 | 0.00 | 0.00 | 50 | 1011.1 |
| 20260505163519 | 76 | 208 | 7.0 | 17.0 | 0.00 | 0.00 | 0.00 | 48 | 1011.4 |
| 20260505163033 | 76 | 207 | 7.0 | 12.0 | 0.00 | 0.00 | 0.00 | 49 | 1011.4 |
| 20260505162515 | 76 | 150 | 3.0 | 10.0 | 0.00 | 0.00 | 0.00 | 49 | 1011.5 |
| 20260505162019 | 76 | 227 | 5.0 | 10.0 | 0.00 | 0.00 | 0.00 | 48 | 1011.4 |
| 20260505161532 | 76 | 238 | 6.0 | 11.0 | 0.00 | 0.00 | 0.00 | 47 | 1011.5 |
| 20260505161016 | 76 | 282 | 3.0 | 11.0 | 0.00 | 0.00 | 0.00 | 48 | 1011.6 |
| 20260505160517 | 75 | 218 | 6.0 | 17.0 | 0.00 | 0.00 | 0.00 | 48 | 1011.7 |
| 20260505153031 | 74 | 213 | 4.0 | 11.0 | 0.00 | 0.00 | 0.00 | 53 | 1012.2 |
| 20260505152518 | 74 | 205 | 5.0 | 14.0 | 0.00 | 0.00 | 0.00 | 49 | 1012.3 |
| 20260505152017 | 73 | 297 | 4.0 | 14.0 | 0.00 | 0.00 | 0.00 | 50 | 1012.3 |
| 20260505151534 | 73 | 159 | 6.0 | 14.0 | 0.00 | 0.00 | 0.00 | 51 | 1012.3 |
| 20260505151019 | 73 | 249 | 5.0 | 14.0 | 0.00 | 0.00 | 0.00 | 54 | 1012.3 |
| 20260505150516 | 72 | 175 | 5.0 | 16.0 | 0.00 | 0.00 | 0.00 | 52 | 1012.5 |
| 20260505140514 | 68 | 194 | 4.0 | 12.0 | 0.00 | 0.00 | 0.00 | 62 | 1012.7 |
| 20260505125016 | 62 | 221 | 2.0 | 8.0 | 0.00 | 0.00 | 0.00 | 74 | 1011.9 |
| 20260505124541 | 61 | 254 | 3.0 | 7.0 | 0.00 | 0.00 | 0.00 | 75 | 1011.7 |
| 20260505124016 | 60 | 190 | 2.0 | 7.0 | 0.00 | 0.00 | 0.00 | 78 | 1011.7 |
| 20260505123516 | 59 | 207 | 2.0 | 7.0 | 0.00 | 0.00 | 0.00 | 78 | 1011.8 |
| 20260505123030 | 59 | 137 | 3.0 | 7.0 | 0.00 | 0.00 | 0.00 | 81 | 1011.6 |
| 20260505122516 | 58 | 159 | 3.0 | 8.0 | 0.00 | 0.00 | 0.00 | 81 | 1011.6 |
| 20260505122014 | 58 | 225 | 2.0 | 8.0 | 0.00 | 0.00 | 0.00 | 82 | 1011.5 |
| 20260505121554 | 57 | 126 | 0.0 | 5.0 | 0.00 | 0.00 | 0.00 | 83 | 1011.3 |
| 20260505121018 | 57 | 61 | 2.0 | 6.0 | 0.00 | 0.00 | 0.00 | 83 | 1011.3 |
| 20260505120514 | 57 | 344 | 1.0 | 7.0 | 0.00 | 0.00 | 0.00 | 83 | 1011.6 |
| 20260505120030 | 57 | 168 | 3.0 | 7.0 | 0.00 | 0.00 | 0.00 | 83 | 1011.5 |
| 20260505115512 | 57 | 183 | 2.0 | 8.0 | 0.00 | 0.00 | 0.00 | 84 | 1011.7 |
| 20260505115014 | 57 | 316 | 1.0 | 8.0 | 0.00 | 0.00 | 0.00 | 82 | 1011.3 |
| 20260505114533 | 57 | 155 | 2.0 | 8.0 | 0.00 | 0.00 | 0.00 | 82 | 1011.5 |
| 20260505114016 | 57 | 298 | 3.0 | 8.0 | 0.00 | 0.00 | 0.00 | 81 | 1011.5 |
| 20260505113516 | 57 | 333 | 1.0 | 4.0 | 0.00 | 0.00 | 0.00 | 82 | 1012.0 |
| 20260505113031 | 56 | 229 | 1.0 | 4.0 | 0.00 | 0.00 | 0.00 | 84 | 1011.9 |
| 20260505112514 | 56 | 178 | 1.0 | 5.0 | 0.00 | 0.00 | 0.00 | 85 | 1011.9 |
| 20260505112014 | 55 | 205 | 1.0 | 5.0 | 0.00 | 0.00 | 0.00 | 87 | 1011.9 |
| 20260505111538 | 54 | 173 | 2.0 | 5.0 | 0.00 | 0.00 | 0.00 | 89 | 1011.9 |
| 20260505111016 | 53 | 255 | 1.0 | 5.0 | 0.00 | 0.00 | 0.00 | 92 | 1011.7 |
| 20260505110515 | 52 | 171 | 1.0 | 5.0 | 0.00 | 0.00 | 0.00 | 92 | 1011.8 |
| 20260505102014 | 49 | 0 | 0.0 | 2.0 | 0.00 | 0.00 | 0.00 | 92 | 1011.0 |
| 20260505101540 | 49 | 61 | 0.0 | 2.0 | 0.00 | 0.00 | 0.00 | 92 | 1010.8 |
| 20260505101014 | 49 | 0 | 0.0 | 2.0 | 0.00 | 0.00 | 0.00 | 92 | 1010.8 |
| 20260505100516 | 49 | 51 | 0.0 | 2.0 | 0.00 | 0.00 | 0.00 | 92 | 1010.5 |
| 20260505100041 | 49 | 316 | 0.0 | 2.0 | 0.00 | 0.00 | 0.00 | 92 | 1010.6 |
| 20260505095516 | 49 | 165 | 1.0 | 2.0 | 0.00 | 0.00 | 0.00 | 92 | 1010.4 |
| 20260505095016 | 49 | 144 | 1.0 | 2.0 | 0.00 | 0.00 | 0.00 | 91 | 1010.4 |
| 20260505094530 | 49 | 178 | 0.0 | 2.0 | 0.00 | 0.00 | 0.00 | 91 | 1010.4 |
| 20260505094015 | 50 | 238 | 0.0 | 2.0 | 0.00 | 0.00 | 0.00 | 91 | 1010.4 |
| 20260505093516 | 50 | 238 | 1.0 | 2.0 | 0.00 | 0.00 | 0.00 | 91 | 1010.3 |
| 20260505093031 | 50 | 153 | 0.0 | 2.0 | 0.00 | 0.00 | 0.00 | 92 | 1010.3 |
| 20260505092514 | 50 | 178 | 0.0 | 3.0 | 0.00 | 0.00 | 0.00 | 92 | 1010.4 |
| 20260505092014 | 50 | 178 | 0.0 | 4.0 | 0.00 | 0.00 | 0.00 | 92 | 1010.4 |
| 20260505091535 | 50 | 0 | 1.0 | 4.0 | 0.00 | 0.00 | 0.00 | 92 | 1010.4 |
| 20260505091013 | 49 | 249 | 1.0 | 2.0 | 0.00 | 0.00 | 0.00 | 92 | 1010.3 |
| 20260505090513 | 49 | 212 | 0.0 | 2.0 | 0.00 | 0.00 | 0.00 | 91 | 1010.3 |
| 20260505090034 | 49 | 0 | 0.0 | 2.0 | 0.00 | 0.00 | 0.00 | 91 | 1010.2 |
| 20260505085514 | 49 | 137 | 0.0 | 3.0 | 0.00 | 0.00 | 0.00 | 91 | 1010.4 |
| 20260505085017 | 49 | 163 | 1.0 | 3.0 | 0.00 | 0.00 | 0.00 | 91 | 1010.3 |
| 20260505084532 | 49 | 0 | 0.0 | 2.0 | 0.00 | 0.00 | 0.00 | 91 | 1010.2 |
| 20260505084013 | 49 | 0 | 0.0 | 2.0 | 0.00 | 0.00 | 0.00 | 90 | 1010.3 |
| 20260505083519 | 49 | 0 | 0.0 | 2.0 | 0.00 | 0.00 | 0.00 | 90 | 1010.3 |
| 20260505083041 | 49 | 137 | 0.0 | 2.0 | 0.00 | 0.00 | 0.00 | 90 | 1010.3 |
| 20260505082515 | 49 | 0 | 0.0 | 2.0 | 0.00 | 0.00 | 0.00 | 90 | 1010.5 |
| 20260505082016 | 49 | 0 | 0.0 | 2.0 | 0.00 | 0.00 | 0.00 | 90 | 1010.6 |
| 20260505081532 | 49 | 153 | 0.0 | 2.0 | 0.00 | 0.00 | 0.00 | 90 | 1010.5 |
| 20260505081015 | 49 | 0 | 0.0 | 2.0 | 0.00 | 0.00 | 0.00 | 89 | 1010.4 |
| 20260505080514 | 49 | 0 | 0.0 | 2.0 | 0.00 | 0.00 | 0.00 | 89 | 1010.5 |
| 20260505080043 | 49 | 137 | 0.0 | 2.0 | 0.00 | 0.00 | 0.00 | 89 | 1010.6 |
| 20260505075514 | 49 | 0 | 0.0 | 2.0 | 0.00 | 0.00 | 0.00 | 88 | 1010.5 |
| 20260505075016 | 50 | 68 | 0.0 | 2.0 | 0.00 | 0.00 | 0.00 | 88 | 1010.4 |
| 20260505074532 | 50 | 0 | 0.0 | 2.0 | 0.00 | 0.00 | 0.00 | 88 | 1010.4 |
| 20260505074016 | 50 | 93 | 0.0 | 2.0 | 0.00 | 0.00 | 0.00 | 88 | 1010.4 |
| 20260505073513 | 50 | 338 | 0.0 | 3.0 | 0.00 | 0.00 | 0.00 | 88 | 1010.3 |
| 20260505073031 | 50 | 0 | 0.0 | 3.0 | 0.00 | 0.00 | 0.00 | 88 | 1010.3 |
| 20260505072514 | 50 | 0 | 0.0 | 2.0 | 0.00 | 0.00 | 0.00 | 88 | 1010.2 |
| 20260505072015 | 50 | 76 | 0.0 | 2.0 | 0.00 | 0.00 | 0.00 | 87 | 1010.1 |
| 20260505071540 | 50 | 9 | 0.0 | 2.0 | 0.00 | 0.00 | 0.00 | 87 | 1010.3 |
| 20260505071017 | 50 | 93 | 0.0 | 2.0 | 0.00 | 0.00 | 0.00 | 86 | 1010.2 |
| 20260505070515 | 50 | 9 | 0.0 | 2.0 | 0.00 | 0.00 | 0.00 | 86 | 1010.2 |
| 20260505070031 | 50 | 0 | 0.0 | 2.0 | 0.00 | 0.00 | 0.00 | 85 | 1010.3 |
| 20260505065514 | 50 | 111 | 0.0 | 2.0 | 0.00 | 0.00 | 0.00 | 85 | 1010.3 |
| 20260505065019 | 50 | 68 | 0.0 | 3.0 | 0.00 | 0.00 | 0.00 | 84 | 1010.3 |
| 20260505064530 | 51 | 0 | 0.0 | 3.0 | 0.00 | 0.00 | 0.00 | 84 | 1010.4 |
| 20260505064015 | 51 | 76 | 0.0 | 2.0 | 0.00 | 0.00 | 0.00 | 83 | 1010.4 |
| 20260505063514 | 51 | 41 | 0.0 | 2.0 | 0.00 | 0.00 | 0.00 | 82 | 1010.4 |
| 20260505063043 | 51 | 51 | 0.0 | 2.0 | 0.00 | 0.00 | 0.00 | 82 | 1010.4 |
| 20260505062514 | 52 | 0 | 0.0 | 2.0 | 0.00 | 0.00 | 0.00 | 81 | 1010.5 |
| 20260505062021 | 52 | 115 | 0.0 | 2.0 | 0.00 | 0.00 | 0.00 | 80 | 1010.5 |
| 20260505061535 | 52 | 0 | 0.0 | 2.0 | 0.00 | 0.00 | 0.00 | 79 | 1010.6 |
| 20260505061017 | 53 | 0 | 0.0 | 2.0 | 0.00 | 0.00 | 0.00 | 78 | 1010.6 |
| 20260505060513 | 53 | 137 | 0.0 | 2.0 | 0.00 | 0.00 | 0.00 | 78 | 1010.6 |
| 20260505060032 | 54 | 0 | 0.0 | 2.0 | 0.00 | 0.00 | 0.00 | 77 | 1010.6 |
| 20260505055515 | 54 | 93 | 0.0 | 5.0 | 0.00 | 0.00 | 0.00 | 76 | 1010.6 |
| 20260505055016 | 54 | 0 | 0.0 | 5.0 | 0.00 | 0.00 | 0.00 | 75 | 1010.6 |
| 20260505054543 | 54 | 291 | 1.0 | 5.0 | 0.00 | 0.00 | 0.00 | 75 | 1010.7 |
| 20260505054015 | 54 | 93 | 1.0 | 4.0 | 0.00 | 0.00 | 0.00 | 75 | 1010.8 |
| 20260505053514 | 54 | 51 | 0.0 | 3.0 | 0.00 | 0.00 | 0.00 | 75 | 1010.8 |
| 20260505053030 | 54 | 196 | 1.0 | 3.0 | 0.00 | 0.00 | 0.00 | 74 | 1010.8 |
| 20260505052514 | 55 | 0 | 0.0 | 2.0 | 0.00 | 0.00 | 0.00 | 74 | 1010.8 |
| 20260505052014 | 55 | 212 | 0.0 | 5.0 | 0.00 | 0.00 | 0.00 | 73 | 1010.9 |
| 20260505051538 | 55 | 238 | 1.0 | 5.0 | 0.00 | 0.00 | 0.00 | 73 | 1010.9 |
| 20260505051016 | 55 | 0 | 0.0 | 5.0 | 0.00 | 0.00 | 0.00 | 73 | 1011.0 |
| 20260505050520 | 55 | 0 | 1.0 | 5.0 | 0.00 | 0.00 | 0.00 | 72 | 1010.9 |
| 20260505041545 | 54 | 217 | 2.0 | 5.0 | 0.00 | 0.00 | 0.00 | 74 | 1011.2 |
| 20260505041016 | 54 | 205 | 1.0 | 5.0 | 0.00 | 0.00 | 0.00 | 74 | 1011.2 |
| 20260505040516 | 54 | 0 | 1.0 | 5.0 | 0.00 | 0.00 | 0.00 | 74 | 1011.2 |
| 20260505040030 | 55 | 205 | 1.0 | 4.0 | 0.00 | 0.00 | 0.00 | 73 | 1011.1 |
| 20260505035519 | 55 | 279 | 1.0 | 5.0 | 0.00 | 0.00 | 0.00 | 73 | 1011.2 |
| 20260505035014 | 55 | 282 | 1.0 | 5.0 | 0.00 | 0.00 | 0.00 | 73 | 1011.2 |
| 20260505034530 | 55 | 0 | 0.0 | 4.0 | 0.00 | 0.00 | 0.00 | 72 | 1011.2 |
| 20260505034015 | 56 | 254 | 1.0 | 5.0 | 0.00 | 0.00 | 0.00 | 72 | 1011.3 |
| 20260505033515 | 56 | 0 | 1.0 | 5.0 | 0.00 | 0.00 | 0.00 | 71 | 1011.3 |
| 20260505033032 | 56 | 212 | 2.0 | 6.0 | 0.00 | 0.00 | 0.00 | 71 | 1011.3 |
| 20260505032522 | 56 | 221 | 2.0 | 6.0 | 0.00 | 0.00 | 0.00 | 71 | 1011.4 |
| 20260505032015 | 56 | 221 | 2.0 | 6.0 | 0.00 | 0.00 | 0.00 | 72 | 1011.3 |
| 20260505031538 | 56 | 245 | 2.0 | 4.0 | 0.00 | 0.00 | 0.00 | 71 | 1011.3 |
| 20260505031015 | 56 | 187 | 1.0 | 4.0 | 0.00 | 0.00 | 0.00 | 71 | 1011.4 |
| 20260505030516 | 56 | 273 | 1.0 | 5.0 | 0.00 | 0.00 | 0.00 | 71 | 1011.3 |
| 20260505030042 | 57 | 247 | 2.0 | 5.0 | 0.00 | 0.00 | 0.00 | 70 | 1011.3 |
| 20260505025515 | 57 | 275 | 2.0 | 7.0 | 0.00 | 0.00 | 0.00 | 70 | 1011.3 |
| 20260505025016 | 57 | 245 | 2.0 | 7.0 | 0.00 | 0.00 | 0.00 | 71 | 1011.3 |
| 20260505024529 | 57 | 265 | 2.0 | 6.0 | 0.00 | 0.00 | 0.00 | 71 | 1011.3 |
| 20260505024015 | 57 | 277 | 2.0 | 4.0 | 0.00 | 0.00 | 0.00 | 70 | 1011.3 |
| 20260505023514 | 57 | 205 | 2.0 | 4.0 | 0.00 | 0.00 | 0.00 | 70 | 1011.3 |
| 20260505023031 | 57 | 214 | 2.0 | 5.0 | 0.00 | 0.00 | 0.00 | 71 | 1011.4 |
| 20260505022516 | 57 | 196 | 2.0 | 5.0 | 0.00 | 0.00 | 0.00 | 71 | 1011.4 |
| 20260505022014 | 57 | 272 | 2.0 | 7.0 | 0.00 | 0.00 | 0.00 | 71 | 1011.5 |
| 20260505021531 | 57 | 238 | 1.0 | 7.0 | 0.00 | 0.00 | 0.00 | 72 | 1011.4 |
| 20260505021013 | 57 | 137 | 2.0 | 7.0 | 0.00 | 0.00 | 0.00 | 72 | 1011.4 |
| 20260505020514 | 56 | 178 | 2.0 | 6.0 | 0.00 | 0.00 | 0.00 | 72 | 1011.4 |
| 20260505020045 | 56 | 257 | 1.0 | 6.0 | 0.00 | 0.00 | 0.00 | 73 | 1011.3 |
| 20260505015516 | 56 | 232 | 2.0 | 6.0 | 0.00 | 0.00 | 0.00 | 73 | 1011.4 |
| 20260505015014 | 56 | 238 | 1.0 | 5.0 | 0.00 | 0.00 | 0.00 | 73 | 1011.3 |
| 20260505014531 | 56 | 190 | 1.0 | 5.0 | 0.00 | 0.00 | 0.00 | 73 | 1011.4 |
| 20260505014014 | 56 | 265 | 2.0 | 4.0 | 0.00 | 0.00 | 0.00 | 73 | 1011.3 |
| 20260505013513 | 56 | 212 | 1.0 | 4.0 | 0.00 | 0.00 | 0.00 | 73 | 1011.2 |
| 20260505013032 | 56 | 277 | 2.0 | 5.0 | 0.00 | 0.00 | 0.00 | 73 | 1011.2 |
| 20260505012514 | 56 | 255 | 2.0 | 6.0 | 0.00 | 0.00 | 0.00 | 73 | 1011.2 |
| 20260505012017 | 56 | 214 | 2.0 | 6.0 | 0.00 | 0.00 | 0.00 | 73 | 1011.2 |
| 20260505011533 | 56 | 238 | 1.0 | 6.0 | 0.00 | 0.00 | 0.00 | 73 | 1011.1 |
| 20260505011014 | 56 | 237 | 3.0 | 6.0 | 0.00 | 0.00 | 0.00 | 73 | 1011.0 |
| 20260505010514 | 56 | 229 | 2.0 | 5.0 | 0.00 | 0.00 | 0.00 | 72 | 1010.9 |
| 20260505010047 | 57 | 265 | 2.0 | 5.0 | 0.00 | 0.00 | 0.00 | 72 | 1010.8 |
| 20260505005516 | 57 | 217 | 2.0 | 5.0 | 0.00 | 0.00 | 0.00 | 72 | 1010.8 |
| 20260505005019 | 57 | 221 | 1.0 | 5.0 | 0.00 | 0.00 | 0.00 | 71 | 1010.7 |
| 20260505004531 | 57 | 247 | 2.0 | 8.0 | 0.00 | 0.00 | 0.00 | 71 | 1010.6 |
| 20260505004015 | 57 | 254 | 3.0 | 8.0 | 0.00 | 0.00 | 0.00 | 71 | 1010.5 |
| 20260505003516 | 57 | 243 | 2.0 | 8.0 | 0.00 | 0.00 | 0.00 | 70 | 1010.4 |
| 20260505003045 | 57 | 265 | 2.0 | 6.0 | 0.00 | 0.00 | 0.00 | 69 | 1010.4 |
| 20260505002519 | 57 | 238 | 3.0 | 7.0 | 0.00 | 0.00 | 0.00 | 69 | 1010.3 |
| 20260505002015 | 58 | 178 | 2.0 | 7.0 | 0.00 | 0.00 | 0.00 | 68 | 1010.2 |
| 20260505001538 | 58 | 238 | 2.0 | 8.0 | 0.00 | 0.00 | 0.00 | 68 | 1010.3 |
| 20260505001018 | 58 | 250 | 3.0 | 9.0 | 0.00 | 0.00 | 0.00 | 67 | 1010.3 |
| 20260505000516 | 58 | 212 | 2.0 | 9.0 | 0.00 | 0.00 | 0.00 | 67 | 1010.2 |
| 20260505000037 | 59 | 216 | 4.0 | 13.0 | 0.00 | 0.00 | 0.00 | 65 | 1010.0 |
| 20260504235516 | 59 | 223 | 5.0 | 13.0 | 0.00 | 0.00 | 0.00 | 64 | 1010.0 |
| 20260504235016 | 59 | 201 | 3.0 | 9.0 | 0.00 | 0.00 | 0.00 | 63 | 1010.0 |
| 20260504234533 | 59 | 217 | 3.0 | 16.0 | 0.00 | 0.00 | 0.00 | 62 | 1009.9 |
| 20260504234013 | 60 | 108 | 5.0 | 16.0 | 0.00 | 0.00 | 0.00 | 62 | 1009.8 |
| 20260504233515 | 60 | 201 | 6.0 | 16.0 | 0.00 | 0.00 | 0.00 | 61 | 1009.8 |
| 20260504233032 | 60 | 210 | 5.0 | 13.0 | 0.00 | 0.00 | 0.00 | 60 | 1009.7 |
| 20260504232516 | 60 | 230 | 5.0 | 13.0 | 0.00 | 0.00 | 0.00 | 59 | 1009.7 |
| 20260504232013 | 61 | 190 | 4.0 | 12.0 | 0.00 | 0.00 | 0.00 | 59 | 1009.6 |
| 20260504231533 | 61 | 219 | 4.0 | 16.0 | 0.00 | 0.00 | 0.00 | 58 | 1009.6 |
| 20260504231015 | 61 | 243 | 6.0 | 16.0 | 0.00 | 0.00 | 0.00 | 57 | 1009.4 |
| 20260504230515 | 61 | 217 | 5.0 | 13.0 | 0.00 | 0.00 | 0.00 | 56 | 1009.5 |
| 20260504230031 | 62 | 223 | 5.0 | 15.0 | 0.00 | 0.00 | 0.00 | 56 | 1009.4 |
| 20260504225514 | 62 | 178 | 7.0 | 16.0 | 0.00 | 0.00 | 0.00 | 55 | 1009.3 |
| 20260504225016 | 62 | 186 | 6.0 | 16.0 | 0.00 | 0.00 | 0.00 | 54 | 1009.4 |
| 20260504224536 | 62 | 202 | 7.0 | 17.0 | 0.00 | 0.00 | 0.00 | 54 | 1009.3 |
| 20260504224016 | 63 | 209 | 4.0 | 17.0 | 0.00 | 0.00 | 0.00 | 53 | 1009.4 |
| 20260504223516 | 63 | 155 | 4.0 | 17.0 | 0.00 | 0.00 | 0.00 | 53 | 1009.4 |
| 20260504223033 | 64 | 166 | 6.0 | 17.0 | 0.00 | 0.00 | 0.00 | 52 | 1009.3 |
| 20260504222513 | 64 | 175 | 4.0 | 16.0 | 0.00 | 0.00 | 0.00 | 51 | 1009.4 |
| 20260504222015 | 64 | 195 | 8.0 | 16.0 | 0.00 | 0.00 | 0.00 | 50 | 1009.5 |
| 20260504221532 | 65 | 205 | 6.0 | 12.0 | 0.00 | 0.00 | 0.00 | 51 | 1009.6 |
| 20260504221014 | 65 | 119 | 5.0 | 14.0 | 0.00 | 0.00 | 0.00 | 50 | 1009.6 |
| 20260504220515 | 65 | 219 | 5.0 | 14.0 | 0.00 | 0.00 | 0.00 | 49 | 1009.6 |
| 20260504220032 | 65 | 238 | 8.0 | 14.0 | 0.00 | 0.00 | 0.00 | 49 | 1009.8 |
| 20260504215517 | 66 | 137 | 4.0 | 14.0 | 0.00 | 0.00 | 0.00 | 49 | 1009.7 |
| 20260504215017 | 66 | 225 | 6.0 | 14.0 | 0.00 | 0.00 | 0.00 | 47 | 1009.8 |
| 20260504214539 | 66 | 184 | 6.0 | 14.0 | 0.00 | 0.00 | 0.00 | 47 | 1009.8 |
| 20260504214015 | 66 | 242 | 8.0 | 14.0 | 0.00 | 0.00 | 0.00 | 46 | 1009.9 |
| 20260504213513 | 67 | 225 | 5.0 | 16.0 | 0.00 | 0.00 | 0.00 | 47 | 1009.9 |
| 20260504213031 | 67 | 175 | 7.0 | 16.0 | 0.00 | 0.00 | 0.00 | 45 | 1010.1 |
| 20260504212516 | 67 | 202 | 7.0 | 15.0 | 0.00 | 0.00 | 0.00 | 45 | 1010.1 |
| 20260504212015 | 67 | 131 | 7.0 | 16.0 | 0.00 | 0.00 | 0.00 | 45 | 1010.0 |
| 20260504211533 | 68 | 173 | 5.0 | 16.0 | 0.00 | 0.00 | 0.00 | 45 | 1010.0 |
| 20260504211016 | 68 | 54 | 7.0 | 15.0 | 0.00 | 0.00 | 0.00 | 44 | 1009.8 |
| 20260504210521 | 68 | 249 | 4.0 | 14.0 | 0.00 | 0.00 | 0.00 | 45 | 1010.0 |
| 20260504210030 | 68 | 190 | 6.0 | 17.0 | 0.00 | 0.00 | 0.00 | 44 | 1009.9 |
| 20260504205514 | 68 | 265 | 5.0 | 17.0 | 0.00 | 0.00 | 0.00 | 43 | 1009.9 |
| 20260504205017 | 70 | 218 | 7.0 | 19.0 | 0.00 | 0.00 | 0.00 | 41 | 1009.8 |